This demonstration page uses our WeatherBlox Daily Observations layout. Learn more.

Left ArrowRight Arrow

39.01783, -85.05884

Hourly Observations for December 30, 2020

Temp ( °F °C ) Dew Point ( °F °C ) Humidity (%) Winds ( mph kmh ) Pressure ( in mb ) Visibility ( mi km ) Precip ( " mm )
12:52 am 00:52 Cloudy 33 0.6 22 -5.6 64 64 SE 13 20 30.19 1023 10 16 N/A
1:52 am 01:52 Cloudy 33 0.6 22 -5.6 64 64 SSE 12 19 30.18 1022 10 16 N/A
2:52 am 02:52 Cloudy 33 0.6 22 -5.6 64 64 SSE 13 20 30.16 1021 10 16 N/A
3:52 am 03:52 Mostly Cloudy 34 1.1 24 -4.4 67 67 S 6 9 30.13 1020 10 16 N/A
4:52 am 04:52 Mostly Cloudy 34 1.1 25 -3.9 70 70 S 9 15 30.10 1019 10 16 N/A
5:52 am 05:52 Mostly Cloudy 34 1.1 26 -3.3 73 73 S 9 15 30.08 1019 10 16 N/A
6:52 am 06:52 Partly Cloudy 34 1.1 28 -2.2 79 79 SSE 9 15 30.07 1018 10 16 N/A
7:52 am 07:52 Partly Cloudy 44 6.7 34 1.1 68 68 S 14 22 30.07 1018 10 16 N/A
8:52 am 08:52 Cloudy 47 8.3 36 2.2 66 66 SSW 14 22 30.06 1018 10 16 N/A
9:52 am 09:52 Mostly Cloudy 51 10.6 39 3.9 64 64 S 20 31 30.05 1018 10 16 N/A
10:52 am 10:52 Cloudy 52 11.1 40 4.4 64 64 S 21 33 30.04 1017 10 16 N/A
11:52 am 11:52 Cloudy 56 13.3 42 5.6 60 60 SSW 20 31 29.99 1016 10 16 N/A
12:52 pm 12:52 Cloudy 56 13.3 42 5.6 60 60 SSW 15 24 29.96 1015 10 16 0.00 0.00
1:35 pm 13:35 Cloudy with Light Rain 52 11.1 46 7.8 80 80 SW 15 24 29.99 1015 4 6 0.01 0.25
1:52 pm 13:52 Cloudy with Light Rain 51 10.6 47 8.3 86 86 SW 8 13 29.98 1015 3 5 0.04 1.02
2:09 pm 14:09 Cloudy with Light Rain 51 10.6 47 8.3 86 86 SW 9 15 29.98 1015 4 6 0.03 0.76
2:52 pm 14:52 Cloudy with Light Rain 51 10.6 48 8.9 89 89 SSW 10 17 29.95 1014 4 6 0.10 2.54
3:22 pm 15:22 Cloudy with Light Rain 51 10.6 48 8.9 89 89 SW 6 9 29.95 1014 3 5 0.02 0.51
3:31 pm 15:31 Cloudy with Light Rain 51 10.6 48 8.9 89 89 SW 7 11 29.95 1014 3 4 0.03 0.76
3:44 pm 15:44 Cloudy with Light Rain 50 10 48 8.9 93 93 SW 8 13 29.95 1014 3 4 0.04 1.02
3:52 pm 15:52 Cloudy with Light Rain 50 10 48 8.9 93 93 SW 6 9 29.94 1014 3 4 0.05 1.27
4:16 pm 16:16 Cloudy with Rain 50 10 48 8.9 93 93 W 7 11 29.95 1014 2 3 0.03 0.76
4:42 pm 16:42 Cloudy with Rain 50 10 48 8.9 93 93 WSW 6 9 29.96 1015 2 3 0.07 1.78
4:52 pm 16:52 Cloudy with Rain 50 10 48 8.9 93 93 WSW 5 7 29.95 1014 2 3 0.10 2.54
5:08 pm 17:08 Cloudy with Light Rain 50 10 48 8.9 93 93 SW 7 11 29.95 1014 2 3 0.02 0.51
5:22 pm 17:22 Cloudy with Rain 50 10 48 8.9 93 93 SW 8 13 29.94 1014 3 4 0.04 1.02
5:52 pm 17:52 Cloudy with Light Rain 50 10 48 8.9 93 93 SW 8 13 29.93 1013 3 4 0.09 2.29
5:55 pm 17:55 Cloudy with Light Rain 50 10 48 8.9 93 93 SW 7 11 29.93 1014 4 6 0.01 0.25
6:06 pm 18:06 Cloudy with Light Rain 50 10 48 8.9 93 93 SW 7 11 29.93 1014 4 6 0.02 0.51
6:26 pm 18:26 Cloudy with Rain 50 10 48 8.9 93 93 WSW 8 13 29.94 1014 2 3 0.04 1.02
6:52 pm 18:52 Cloudy with Rain 50 10 48 8.9 93 93 W 10 17 29.95 1014 3 4 0.13 3.30
7:15 pm 19:15 Cloudy with Light Rain 50 10 47 8.3 89 89 W 14 22 29.96 1015 4 6 0.09 2.29
7:52 pm 19:52 Cloudy with Light Rain 43 6.1 39 3.9 86 86 NW 15 24 29.98 1015 5 8 0.13 3.30
8:30 pm 20:30 Cloudy with Light Rain 39 3.9 36 2.2 89 89 NW 18 30 30.05 1018 5 8 0.01 0.25
8:52 pm 20:52 Cloudy with Light Rain 38 3.3 34 1.1 86 86 NW 20 31 30.03 1017 5 8 0.04 1.02
9:05 pm 21:05 Cloudy with Light Rain 37 2.8 34 1.1 89 89 NW 16 26 30.07 1018 9 14 0.01 0.25
9:44 pm 21:44 Cloudy with Rain 37 2.8 33 0.6 86 86 NW 15 24 30.08 1018 5 8 0.03 0.76
9:52 pm 21:52 Cloudy with Rain 36 2.2 33 0.6 89 89 NW 16 26 30.04 1017 5 8 0.05 1.27
10:42 pm 22:42 Cloudy with Light Rain 36 2.2 33 0.6 89 89 WNW 6 9 30.10 1019 5 8 0.03 0.76
10:50 pm 22:50 Cloudy with Light Rain 36 2 34 1 93 93 WNW 9 15 30.11 1020 6 10 0.03 0.76
10:52 pm 22:52 Cloudy with Light Rain 35 1.7 33 0.6 93 93 WNW 9 15 30.07 1018 6 10 0.03 0.76
11:07 pm 23:07 Cloudy with Light Rain 35 1.7 32 undefined 89 89 WNW 9 15 30.11 1020 9 14 0.01 0.25
11:52 pm 23:52 Cloudy with Light Rain 34 1.1 31 -0.6 89 89 WNW 8 13 30.08 1019 5 8 0.02 0.51

Powered by AerisWeather